[[{"header":{"parameterUnit":"m.s-1","parameterCategory":1,"la1":30.2991,"la2":30.254,"lo1":-89.0895,"lo2":-89.0444,"dy":0.0017,"dx":0.0017,"nx":28,"ny":28,"refTime":"2024-07-24T03:00:00:Z","depth":0,"parameterNumber":2,"parameterNumberName":"U-component_of_WINDS"},"data":[0,0,0,0,0,0,0,0,0,0,0,0,0,0,0,0,0,0,0,0,0,0,0,0,0,0,0,0,0,0,0,0,0,0,0,0,0,0,0,0,0,0,0,0,0,0,0,0,0,0,0,0,0,0,0,0,0,0,-0.509,-0.5089,0,-0.5,-0.4999,-0.4998,-0.4926,-0.4925,-0.4924,-0.4923,-0.4831,-0.4829,-0.4828,0,0,0,0,0,0,0,0,0,0,0,0,0,-0.52,-0.5198,-0.509,-0.5089,-0.5088,-0.5,-0.4999,-0.4998,-0.4926,-0.4925,-0.4924,-0.4923,-0.4832,-0.483,-0.4827,0,0,0,0,0,0,0,0,0,0,0,0,0,-0.5135,-0.5198,-0.509,-0.5041,-0.5036,-0.5001,-0.4999,-0.4998,-0.4926,-0.4925,-0.4924,-0.4923,-0.4832,-0.483,-0.4827,-0.4833,0,0,-0.4819,-0.4818,0,0,0,0,0,0,0,0,-0.5139,-0.5131,-0.505,-0.5045,-0.5039,-0.4973,-0.5004,-0.4942,-0.4926,-0.4968,-0.4923,-0.4922,-0.4879,-0.4873,-0.4858,-0.4829,-0.4825,-0.4819,-0.4817,-0.4816,-0.4815,0,0,0,0,0,0,0,-0.5144,-0.5135,-0.5054,-0.5049,-0.5042,-0.5024,-0.5014,-0.4992,-0.4931,-0.4964,-0.4958,-0.4949,-0.4876,-0.4861,-0.4855,-0.4823,-0.4819,-0.4817,-0.4815,-0.4814,-0.4796,-0.4797,0,0,0,0,0,0,-0.5156,-0.5139,-0.5057,-0.5052,-0.5087,-0.5023,-0.5011,-0.4995,-0.4931,-0.492,-0.495,-0.4946,-0.4866,-0.4859,-0.4852,-0.4855,-0.4816,-0.4814,-0.4812,-0.4795,-0.4796,-0.4797,0,0,0,0,0,0,-0.5158,-0.5149,-0.5061,-0.5094,-0.5081,-0.5022,-0.5005,-0.4994,-0.4979,-0.492,-0.4909,-0.4946,-0.4865,-0.4856,-0.4839,-0.4851,-0.4812,-0.481,-0.4793,-0.4795,-0.4796,-0.4862,0,0,0,0,0,0,-0.5162,-0.515,-0.5152,-0.5094,-0.508,-0.5049,-0.5005,-0.4993,-0.4974,-0.4968,-0.4913,-0.4903,-0.4863,-0.4843,-0.4836,-0.4847,-0.4808,-0.4792,-0.4794,-0.4796,-0.4859,-0.4866,-0.4872,0,0,0,0,0,-0.5166,-0.5174,-0.5152,-0.5143,-0.508,-0.505,-0.5042,-0.4996,-0.4976,-0.4977,-0.4939,-0.4905,-0.4851,-0.4842,-0.4833,-0.4844,-0.4791,-0.4793,-0.4796,-0.4856,-0.4865,-0.4872,0,0,0,0,0,0,-0.5234,-0.5165,-0.5141,-0.513,-0.5097,-0.5038,-0.5038,-0.5006,-0.4978,-0.4973,-0.4917,-0.4905,-0.4895,-0.4867,-0.4858,-0.4847,-0.4816,-0.4817,-0.4865,-0.4873,-0.488,-0.4887,-0.4806,0,0,0,0,0,-0.5248,-0.5229,-0.517,-0.5166,-0.5151,-0.5098,-0.5082,-0.505,-0.5013,-0.4998,-0.4959,-0.4925,-0.49,-0.4885,-0.4859,-0.4854,-0.4842,-0.4857,-0.4864,-0.487,-0.4872,-0.4868,-0.4875,-0.4805,-0.4805,-0.4805,0,0,-0.5276,-0.5236,-0.5228,-0.5179,-0.5149,-0.5131,-0.5086,-0.5068,-0.5055,-0.4995,-0.4977,-0.4948,-0.4905,-0.4895,-0.4889,-0.4872,-0.4888,-0.4873,-0.4878,-0.4876,-0.4872,-0.4878,-0.4884,-0.4807,-0.4807,-0.4806,0,0,-0.5319,-0.5286,-0.528,-0.5251,-0.5207,-0.5171,-0.517,-0.5116,-0.5095,-0.5075,-0.5031,-0.5014,-0.4972,-0.4944,-0.4924,-0.4958,-0.4925,-0.4951,-0.4986,-0.4984,-0.4989,-0.4994,-0.5006,-0.5012,-0.4952,-0.4953,-0.4953,0,-0.536,-0.533,-0.5281,-0.5267,-0.5247,-0.5193,-0.5187,-0.5161,-0.511,-0.5098,-0.508,-0.5028,-0.4995,-0.4978,-0.4987,-0.4972,-0.4969,-0.4957,-0.4992,-0.4996,-0.5,-0.5011,-0.5016,-0.4956,-0.4956,-0.4955,-0.4955,0,-0.5383,-0.5364,-0.5364,-0.5317,-0.5297,-0.5287,-0.5237,-0.5223,-0.5192,-0.5159,-0.5141,-0.51,-0.5066,-0.5059,-0.5029,-0.5038,-0.5029,-0.5003,-0.4971,-0.5011,-0.5021,-0.5025,-0.4961,-0.496,-0.4959,-0.4958,0,0,-0.5466,-0.5392,-0.5393,-0.5372,-0.5319,-0.5303,-0.5291,-0.5257,-0.5247,-0.5214,-0.5202,-0.5169,-0.5144,-0.5122,-0.5088,-0.5086,-0.5116,-0.5059,-0.5058,-0.5072,-0.5125,-0.5146,-0.5152,-0.5094,-0.5095,-0.5095,-0.5129,0,-0.5501,-0.5475,-0.5431,-0.542,-0.5402,-0.5351,-0.5341,-0.5307,-0.5276,-0.5257,-0.5222,-0.52,-0.5168,-0.5155,-0.515,-0.5114,-0.5126,-0.511,-0.5084,-0.5083,-0.5097,-0.5157,-0.5179,-0.5212,-0.5132,-0.5133,-0.5133,0,-0.5538,-0.5508,-0.5496,-0.5445,-0.5436,-0.5427,-0.5393,-0.5375,-0.5337,-0.5314,-0.529,-0.5253,-0.5238,-0.521,-0.5188,-0.5179,-0.5165,-0.5146,-0.5146,-0.5142,-0.5111,-0.5155,-0.5222,-0.5227,-0.5139,-0.5138,-0.5138,0,-0.56,-0.5558,-0.5545,-0.5528,-0.5468,-0.5464,-0.5439,-0.5399,-0.5382,-0.5352,-0.5341,-0.531,-0.5293,-0.527,-0.5226,-0.5209,-0.521,-0.5178,-0.5192,-0.5193,-0.5195,-0.5195,-0.5261,-0.5185,-0.5185,-0.5185,-0.5185,0,-0.5644,-0.5639,-0.5572,-0.5565,-0.5558,-0.5507,-0.5501,-0.5472,-0.5437,-0.5423,-0.5377,-0.5365,-0.5307,-0.5288,-0.5254,-0.5242,-0.5235,-0.5217,-0.5208,-0.5221,-0.5224,-0.5212,-0.5209,-0.5186,-0.5186,-0.5186,-0.5185,0,-0.5713,-0.5668,-0.5651,-0.5597,-0.5583,-0.558,-0.5533,-0.5524,-0.5491,-0.5474,-0.5467,-0.5414,-0.539,-0.5344,-0.5306,-0.5283,-0.5279,-0.5263,-0.5293,-0.5287,-0.5304,-0.5304,-0.5365,-0.5371,-0.5291,-0.5292,-0.5293,0,-0.5745,-0.5739,-0.5684,-0.5672,-0.5649,-0.5629,-0.5611,-0.5561,-0.5545,-0.5502,-0.5498,-0.547,-0.5445,-0.5409,-0.5368,-0.5339,-0.5322,-0.5346,-0.5318,-0.5332,-0.5324,-0.5325,-0.5325,-0.5352,-0.5354,-0.5354,-0.5355,0,-0.5805,-0.5784,-0.576,-0.5729,-0.571,-0.5683,-0.5654,-0.5646,-0.559,-0.5574,-0.5549,-0.553,-0.5492,-0.5465,-0.5431,-0.5405,-0.5371,-0.5364,-0.5366,-0.538,-0.5398,-0.539,-0.5311,-0.5363,-0.5362,-0.5362,-0.5361,-0.5361,-0.5857,-0.585,-0.5811,-0.5786,-0.5759,-0.5733,-0.5723,-0.5688,-0.5666,-0.5632,-0.5603,-0.5581,-0.5543,-0.5494,-0.547,-0.5452,-0.5436,-0.5438,-0.5439,-0.5441,-0.5447,-0.5401,-0.5446,-0.5445,-0.5445,-0.5445,-0.5445,0,-0.5916,-0.5888,-0.5866,-0.5827,-0.5808,-0.5778,-0.5744,-0.5731,-0.5712,-0.5679,-0.5656,-0.5628,-0.5602,-0.5559,-0.5529,-0.5523,-0.5507,-0.5517,-0.5518,-0.5512,-0.5463,-0.5464,-0.5531,-0.5531,-0.5531,-0.5531,-0.5531,-0.5531,-0.5944,-0.5932,-0.5906,-0.588,-0.5852,-0.583,-0.5813,-0.5789,-0.5764,-0.5734,-0.5712,-0.5684,-0.5648,-0.5616,-0.5591,-0.5579,-0.5571,-0.5586,-0.557,-0.5524,-0.5516,-0.5508,-0.5509,-0.5585,-0.5585,-0.5621,-0.5621,-0.5622]},{"header":{"parameterUnit":"m.s-1","parameterCategory":1,"la1":30.2991,"la2":30.254,"lo1":-89.0895,"lo2":-89.0444,"dy":0.0017,"dx":0.0017,"nx":28,"ny":28,"refTime":"2024-07-24T03:00:00:Z","depth":0,"parameterNumber":3,"parameterNumberName":"V-component_of_WINDS"},"data":[0,0,0,0,0,0,0,0,0,0,0,0,0,0,0,0,0,0,0,0,0,0,0,0,0,0,0,0,0,0,0,0,0,0,0,0,0,0,0,0,0,0,0,0,0,0,0,0,0,0,0,0,0,0,0,0,0,0,3.0272,3.0271,0,3.0215,3.0214,3.0213,3.018,3.018,3.0179,3.0179,3.0115,3.0113,3.0112,0,0,0,0,0,0,0,0,0,0,0,0,0,3.0348,3.0347,3.0272,3.0271,3.0271,3.0215,3.0214,3.0213,3.018,3.018,3.0179,3.0179,3.0115,3.0114,3.0112,0,0,0,0,0,0,0,0,0,0,0,0,0,3.0305,3.0346,3.0272,3.0247,3.0245,3.0215,3.0214,3.0213,3.018,3.018,3.0179,3.0179,3.0116,3.0114,3.0111,3.01,0,0,3.0104,3.0103,0,0,0,0,0,0,0,0,3.0307,3.0302,3.0252,3.0249,3.0246,3.0204,3.0217,3.0175,3.018,3.0204,3.0179,3.0179,3.0144,3.014,3.0129,3.0097,3.0095,3.0104,3.0102,3.0101,3.0101,0,0,0,0,0,0,0,3.031,3.0304,3.0249,3.0251,3.0247,3.0237,3.0231,3.0209,3.0176,3.0202,3.0199,3.0193,3.0143,3.0132,3.0127,3.0094,3.0104,3.0102,3.01,3.0099,3.005,3.005,0,0,0,0,0,0,3.0318,3.0307,3.0251,3.0248,3.0277,3.0236,3.0229,3.0218,3.0176,3.017,3.0194,3.0192,3.0136,3.013,3.0125,3.0109,3.0101,3.0099,3.0098,3.005,3.005,3.005,0,0,0,0,0,0,3.032,3.0313,3.0253,3.0277,3.0268,3.0235,3.0223,3.0217,3.0206,3.017,3.0163,3.0189,3.0135,3.0128,3.0107,3.0107,3.0098,3.0096,3.005,3.005,3.005,3.0078,0,0,0,0,0,0,3.0322,3.0314,3.0311,3.0277,3.0267,3.0238,3.0223,3.0216,3.0202,3.02,3.0163,3.0157,3.0135,3.0111,3.0105,3.0103,3.0094,3.005,3.005,3.005,3.0077,3.008,3.0082,0,0,0,0,0,3.0325,3.032,3.0311,3.0304,3.0263,3.0238,3.0232,3.0208,3.0202,3.0198,3.0175,3.0158,3.0108,3.0109,3.0102,3.01,3.005,3.005,3.005,3.0076,3.0079,3.0081,0,0,0,0,0,0,3.0352,3.0315,3.0304,3.0288,3.0267,3.0233,3.0226,3.0212,3.019,3.0188,3.0158,3.015,3.0132,3.0113,3.0115,3.0087,3.0077,3.0076,3.0099,3.0102,3.0104,3.0108,3.0092,0,0,0,0,0,3.0357,3.0342,3.0309,3.0298,3.0288,3.0259,3.0248,3.0231,3.0207,3.0197,3.0173,3.0148,3.0127,3.0113,3.0092,3.0075,3.0066,3.007,3.0072,3.0074,3.0073,3.0062,3.0063,3.0051,3.0051,3.0051,0,0,3.0365,3.0343,3.0335,3.0303,3.0285,3.0268,3.0252,3.0235,3.0222,3.0194,3.0173,3.0154,3.0125,3.0106,3.0097,3.009,3.0074,3.0074,3.0076,3.0074,3.0063,3.0064,3.0065,3.0051,3.0051,3.0051,0,0,3.0372,3.0354,3.0343,3.0326,3.0299,3.028,3.0277,3.0245,3.0232,3.0211,3.019,3.0173,3.0137,3.0118,3.0103,3.0104,3.0087,3.0097,3.0108,3.0098,3.0099,3.01,3.0099,3.01,3.0097,3.0097,3.0097,0,3.0385,3.0362,3.0339,3.0324,3.031,3.0287,3.0274,3.0258,3.0224,3.0215,3.0209,3.0164,3.0142,3.0119,3.0119,3.0108,3.0103,3.0101,3.0101,3.0101,3.0102,3.0101,3.0101,3.0098,3.0098,3.0098,3.0098,0,3.0379,3.0363,3.0357,3.0328,3.0314,3.03,3.0274,3.0262,3.0247,3.0228,3.0207,3.0181,3.0154,3.0147,3.0131,3.0121,3.0118,3.0107,3.0096,3.0105,3.0104,3.0103,3.01,3.01,3.0099,3.0099,0,0,3.04,3.036,3.0358,3.0345,3.0314,3.03,3.0285,3.0261,3.0251,3.0229,3.0215,3.0186,3.0176,3.0159,3.0141,3.0133,3.0135,3.0123,3.0121,3.0125,3.0121,3.0129,3.0129,3.0124,3.0124,3.0124,3.0124,0,3.0402,3.0377,3.0356,3.0337,3.0322,3.0299,3.0286,3.0265,3.0248,3.0231,3.021,3.019,3.0179,3.0169,3.016,3.0137,3.0133,3.0137,3.0109,3.0109,3.0117,3.0129,3.0137,3.0138,3.0123,3.0123,3.0123,0,3.0401,3.0382,3.0362,3.0334,3.0327,3.0316,3.0292,3.0276,3.0252,3.0239,3.0222,3.0203,3.0185,3.0177,3.0152,3.0154,3.0142,3.0129,3.0129,3.0124,3.0116,3.0124,3.0137,3.0137,3.0122,3.0122,3.0122,0,3.0418,3.0387,3.0372,3.0361,3.0327,3.032,3.0305,3.0281,3.0268,3.0246,3.0237,3.0213,3.02,3.0181,3.0157,3.0153,3.0133,3.0123,3.0121,3.0122,3.0117,3.0118,3.0128,3.0111,3.0111,3.0111,3.0111,0,3.0422,3.041,3.0379,3.0369,3.0356,3.0332,3.0319,3.0302,3.028,3.0266,3.0245,3.0231,3.02,3.0183,3.0163,3.0144,3.0138,3.0127,3.0122,3.0128,3.013,3.0119,3.0118,3.0111,3.0111,3.0111,3.0111,0,3.0438,3.0417,3.0398,3.0369,3.0361,3.0352,3.0326,3.0315,3.0297,3.0279,3.0273,3.0244,3.0222,3.0197,3.0166,3.0153,3.0136,3.0128,3.0145,3.0141,3.0141,3.0141,3.0144,3.0143,3.0128,3.0128,3.0128,0,3.0441,3.0432,3.0403,3.0393,3.0379,3.0363,3.035,3.0326,3.0313,3.0285,3.0277,3.0255,3.0235,3.0201,3.0176,3.0153,3.0144,3.0147,3.014,3.0147,3.0143,3.0144,3.0142,3.0148,3.0148,3.0149,3.0149,0,3.045,3.044,3.0423,3.0403,3.0389,3.0371,3.0353,3.0345,3.0317,3.0304,3.0282,3.0268,3.0238,3.0215,3.0188,3.0171,3.0155,3.0151,3.015,3.0156,3.0165,3.016,3.0149,3.0151,3.0151,3.0151,3.015,3.015,3.0459,3.045,3.0428,3.041,3.0395,3.0378,3.0367,3.0348,3.0331,3.0306,3.0292,3.0271,3.0246,3.021,3.0193,3.0175,3.017,3.0167,3.0166,3.0166,3.0168,3.017,3.017,3.017,3.017,3.017,3.017,0,3.0466,3.0451,3.0435,3.0411,3.0397,3.0385,3.0364,3.0353,3.0335,3.0315,3.0297,3.0272,3.025,3.0224,3.02,3.0191,3.0183,3.0185,3.0185,3.0181,3.0174,3.0178,3.0192,3.0192,3.0192,3.0192,3.0192,3.0192,3.0468,3.0452,3.044,3.0417,3.0401,3.0382,3.0371,3.0355,3.0339,3.0314,3.0296,3.028,3.0257,3.0232,3.0211,3.0203,3.0195,3.02,3.019,3.0184,3.0182,3.018,3.0183,3.0198,3.0198,3.0198,3.0199,3.0199]}]]